Wetbulb
52.39 51.71 51.85 54.29 56.48 56.56 55.86 56.22 56.36 57.47 58.21 58.59 60.27 62.43 63.16 64.97 67.15 67.93 68.44 69.16 68.76 68.62 68.54 68.13 68.86 69.18 69.07 68.52 68.29 68.73 66.69 66.76
52.07 51.54 51.55 50.91 52.16 56.05 57.48 55.76 55.63 55.48 56.26 56.88 56.67 59.29 61.46 61.88 63.73 65.39 67.44 68.53 69.12 68.69 67.97 67.56 68.57 68.81 68.38 67.96 67.82 68.16 67.02 66.42
51.00 50.00 50.13 50.69 50.23 51.10 53.87 55.06 55.12 54.53 53.39 54.63 53.10 53.70 57.82 58.89 61.77 63.19 64.40 67.69 68.43 68.47 68.59 67.73 67.93 68.07 68.07 67.60 67.63 66.64 66.50 66.14
48.16 49.33 48.60 48.53 48.87 50.25 50.43 51.54 53.16 52.36 51.06 51.16 51.28 50.66 54.83 56.17 58.57 60.05 61.62 65.35 68.37 68.36 68.25 67.79 67.61 67.01 66.93 67.20 66.47 66.64 66.57 65.90
46.91 47.88 48.22 48.22 47.71 48.44 48.70 49.71 51.17 52.53 51.90 50.28 50.65 50.58 50.77 53.13 54.42 56.13 57.66 62.54 66.70 67.68 67.40 67.42 67.24 67.22 66.70 66.88 66.30 66.76 66.04 65.23
46.28 46.51 47.23 47.82 47.95 47.15 48.10 48.38 49.91 49.63 52.79 51.64 50.47 49.28 49.17 48.69 51.35 53.61 55.40 58.54 60.85 66.84 65.60 65.94 65.39 67.04 66.37 66.62 67.11 67.18 65.80 64.50
46.33 46.94 47.33 46.81 46.38 47.01 47.12 47.77 48.77 49.33 51.66 51.19 50.73 49.05 48.67 47.77 49.52 51.72 53.59 55.54 56.56 59.14 63.91 65.63 65.54 66.26 66.17 66.08 66.32 66.17 66.16 64.60
47.53 46.42 47.88 47.09 45.90 46.55 46.44 46.82 48.16 48.18 50.57 50.88 50.67 49.62 49.43 48.45 48.29 49.97 51.60 52.64 54.75 56.22 59.44 63.64 65.36 65.38 64.98 65.42 65.18 65.65 66.48 64.71
47.30 47.74 48.45 47.51 46.41 45.87 45.95 45.96 47.50 46.93 49.53 51.64 49.73 49.32 48.72 48.91 47.88 48.74 50.03 50.90 52.61 55.02 58.79 63.47 65.40 65.10 63.80 64.17 64.19 64.96 66.01 64.76
48.18 46.68 47.41 47.13 46.79 45.79 45.38 45.66 46.30 47.10 48.40 50.39 49.79 48.87 48.97 48.32 47.75 48.62 48.83 50.16 51.88 53.47 56.54 59.66 63.99 63.86 62.90 62.98 63.20 64.49 65.36 65.97
46.53 48.18 47.05 46.56 46.78 45.99 45.67 46.31 45.67 46.20 47.21 49.06 49.67 48.71 48.39 48.14 48.24 47.77 48.76 49.14 50.47 51.65 53.31 55.94 62.35 63.12 62.56 62.14 62.16 63.14 64.10 66.57
47.34 47.39 46.97 46.54 46.43 45.30 44.45 44.03 44.79 45.40 46.04 48.41 49.45 48.46 47.78 47.71 48.38 47.71 48.54 48.15 48.96 50.44 51.83 53.61 59.50 62.33 61.41 60.42 60.48 61.40 62.62 63.15
46.86 46.09 45.30 43.76 42.93 41.81 41.63 41.29 42.90 43.73 45.22 48.73 48.70 48.58 47.82 46.90 47.13 47.88 47.86 47.88 48.37 50.04 51.27 51.65 56.52 60.98 58.69 60.21 60.31 59.71 58.98 60.28
46.63 45.32 43.73 43.72 43.22 42.91 42.41 42.64 42.74 43.68 45.30 46.36 48.80 48.77 47.63 46.50 46.76 47.21 47.57 47.25 47.75 48.56 49.27 50.34 54.52 60.38 57.38 57.50 55.54 57.40 60.26 62.53
44.27 44.10 43.64 44.60 43.32 43.27 43.22 42.91 42.58 42.29 42.47 43.50 46.95 48.46 47.81 47.29 46.87 47.95 47.55 47.33 46.43 47.04 48.17 48.66 48.95 58.74 58.87 56.58 54.45 53.23 56.96 61.39
43.90 43.48 43.15 43.05 44.18 41.98 41.53 39.79 38.84 40.83 41.86 44.02 45.22 46.66 47.41 47.46 47.33 48.09 47.65 46.52 46.03 46.09 47.81 47.99 49.58 49.66 58.48 58.93 59.66 59.17 55.36 55.86
43.98 43.91 42.41 43.09 42.99 44.11 41.80 40.65 40.65 41.44 42.17 42.92 44.11 44.74 46.22 46.08 46.75 47.08 47.42 46.15 45.90 45.68 46.01 46.61 49.13 49.71 51.24 58.58 57.94 58.58 58.96 57.51
44.17 42.89 42.52 43.42 43.17 42.95 42.10 41.14 40.45 40.16 40.75 40.96 41.36 42.38 43.87 44.34 46.32 46.29 47.41 46.24 45.66 45.46 45.71 46.62 48.14 49.36 50.61 53.19 58.57 56.60 57.19 57.18
42.92 42.25 41.44 42.70 42.84 42.47 42.05 41.42 41.07 40.90 40.79 41.14 40.69 41.04 41.76 43.11 44.93 45.35 45.75 46.38 45.78 46.00 45.51 46.46 47.92 48.45 49.08 50.84 55.28 60.00 59.92 59.09
42.41 41.35 40.90 42.20 42.20 41.90 42.27 42.24 40.85 41.07 41.25 41.49 41.77 41.63 42.38 44.25 44.62 45.16 45.36 46.35 45.55 45.74 46.07 45.98 47.96 48.68 50.07 51.85 53.43 60.77 61.11 60.57
MSLP
1024.37 1024.20 1023.76 1023.06 1022.40 1022.15 1022.94 1023.00 1022.25 1021.94 1021.42 1020.81 1020.04 1019.33 1019.01 1018.43 1018.04 1017.85 1017.88 1017.75 1017.89 1018.12 1018.40 1018.53 1018.47 1018.56 1018.56 1018.52 1018.77 1018.79 1018.97 1019.13
1024.46 1024.47 1024.29 1023.78 1023.00 1022.59 1022.73 1022.78 1022.41 1022.15 1021.94 1021.36 1020.76 1020.05 1019.53 1019.20 1018.65 1018.26 1017.98 1017.71 1017.68 1017.92 1018.26 1018.19 1018.50 1018.47 1018.38 1018.39 1018.56 1018.93 1019.10 1019.13
1024.49 1024.60 1024.57 1024.25 1023.51 1023.62 1023.14 1022.49 1022.78 1022.26 1022.21 1021.85 1021.25 1020.80 1020.34 1019.80 1019.21 1018.67 1018.11 1017.55 1017.35 1017.51 1017.84 1018.11 1018.40 1018.46 1018.50 1018.39 1018.42 1018.68 1017.95 1018.74
1024.65 1024.76 1024.75 1024.50 1023.85 1023.60 1023.35 1023.01 1022.68 1022.48 1022.48 1022.53 1021.84 1021.69 1021.31 1020.56 1019.87 1019.20 1018.52 1017.63 1017.01 1017.19 1017.40 1017.88 1018.25 1018.56 1018.64 1018.52 1018.59 1018.67 1018.57 1018.92
1024.71 1024.85 1025.07 1024.93 1024.48 1024.09 1023.82 1023.26 1022.93 1022.66 1022.75 1022.64 1022.25 1022.69 1022.37 1021.25 1020.60 1019.86 1019.24 1018.25 1017.32 1017.12 1017.36 1017.78 1018.10 1018.42 1018.59 1018.52 1018.65 1018.83 1018.58 1018.95
1024.67 1024.92 1025.19 1025.34 1025.00 1024.84 1024.29 1023.64 1023.21 1023.15 1022.87 1022.82 1023.01 1023.37 1022.53 1022.05 1021.23 1020.60 1019.82 1019.22 1018.36 1017.38 1017.30 1017.46 1017.67 1018.16 1018.43 1018.49 1018.83 1019.07 1018.78 1019.46
1024.52 1024.83 1025.26 1025.39 1025.35 1025.10 1024.72 1024.00 1023.57 1023.34 1022.68 1022.72 1023.04 1023.29 1023.00 1022.69 1021.79 1021.07 1020.42 1019.97 1019.37 1018.55 1017.90 1017.36 1017.42 1017.87 1018.39 1018.51 1018.83 1019.64 1019.18 1019.25
1024.29 1024.67 1024.97 1025.25 1025.49 1025.33 1024.95 1024.23 1023.73 1023.34 1022.70 1022.86 1023.06 1023.16 1023.16 1022.90 1022.16 1021.49 1020.90 1020.39 1019.78 1019.12 1018.46 1017.79 1017.19 1017.89 1018.40 1018.69 1019.21 1019.68 1019.39 1019.44
1023.75 1024.19 1024.50 1025.06 1025.28 1025.21 1024.85 1024.42 1023.83 1023.41 1022.69 1022.47 1022.81 1022.94 1022.84 1022.57 1022.54 1022.07 1021.24 1020.63 1020.01 1019.31 1018.31 1017.88 1017.71 1017.74 1018.35 1018.71 1019.21 1019.73 1019.49 1019.41
1023.12 1023.48 1024.13 1024.69 1025.06 1024.99 1024.65 1024.33 1023.95 1023.27 1022.73 1022.36 1022.70 1022.90 1022.80 1022.63 1022.69 1022.10 1021.47 1021.02 1020.44 1019.82 1018.64 1018.31 1017.82 1017.60 1018.18 1018.55 1018.93 1019.19 1019.29 1019.34
1022.63 1023.13 1023.73 1024.33 1024.63 1024.61 1024.33 1024.30 1023.83 1023.39 1022.87 1022.29 1022.40 1022.72 1022.75 1022.50 1022.40 1022.22 1021.88 1021.15 1020.60 1020.00 1018.97 1018.81 1017.95 1017.11 1018.03 1018.52 1018.70 1018.94 1019.25 1019.33
1022.14 1022.84 1023.54 1024.11 1024.36 1024.30 1024.15 1024.32 1023.88 1023.51 1022.98 1022.34 1022.19 1022.58 1022.79 1022.51 1022.28 1022.16 1021.68 1021.08 1020.82 1020.21 1019.31 1018.63 1018.29 1017.21 1017.88 1018.43 1018.62 1018.78 1019.03 1019.68
1021.68 1022.53 1023.57 1024.39 1024.72 1024.43 1024.11 1024.24 1024.05 1023.52 1022.99 1022.32 1022.17 1022.13 1022.47 1022.35 1022.28 1022.02 1021.76 1021.02 1021.07 1020.58 1019.83 1018.97 1018.07 1017.60 1018.37 1018.56 1018.86 1018.81 1019.11 1019.49
1021.58 1022.24 1023.30 1024.61 1024.25 1024.38 1024.31 1024.36 1024.17 1023.37 1022.83 1022.47 1021.93 1021.77 1022.19 1022.15 1022.17 1022.01 1021.73 1021.26 1021.26 1020.50 1019.82 1019.31 1018.67 1017.54 1017.94 1018.44 1018.77 1019.00 1018.75 1019.02
1022.10 1022.80 1023.53 1024.92 1024.86 1023.92 1024.13 1024.24 1023.86 1023.38 1022.96 1022.47 1021.95 1021.47 1021.90 1022.27 1022.15 1021.99 1021.65 1021.61 1021.49 1020.76 1020.34 1020.05 1019.59 1017.59 1017.29 1017.56 1018.38 1018.26 1018.28 1018.21
1022.65 1023.36 1023.91 1024.38 1024.31 1024.07 1024.34 1024.24 1024.21 1023.72 1023.09 1022.63 1022.55 1022.82 1022.16 1022.18 1022.17 1022.07 1022.00 1022.04 1021.53 1020.76 1020.40 1020.19 1019.38 1018.67 1017.67 1017.16 1017.49 1017.44 1018.02 1018.45
1023.08 1023.53 1024.19 1024.96 1024.35 1024.08 1024.25 1024.19 1024.06 1023.75 1023.40 1023.15 1022.78 1022.87 1022.42 1022.31 1022.28 1022.15 1021.84 1022.01 1021.72 1021.03 1020.50 1020.09 1019.69 1019.43 1018.55 1017.76 1017.79 1017.65 1017.90 1017.97
1023.04 1023.64 1023.89 1023.88 1023.96 1024.08 1024.42 1024.23 1024.13 1023.91 1023.79 1023.59 1023.09 1023.10 1022.74 1022.54 1022.34 1022.12 1021.88 1021.68 1021.35 1020.86 1020.70 1020.02 1019.61 1019.00 1018.77 1018.35 1017.24 1017.25 1017.52 1017.66
1023.03 1023.34 1023.60 1023.72 1023.77 1024.15 1024.17 1024.26 1024.16 1023.94 1023.77 1023.65 1023.51 1023.16 1022.94 1022.81 1022.26 1021.88 1021.69 1021.44 1021.55 1021.33 1020.91 1020.36 1019.90 1018.99 1018.14 1018.16 1017.58 1016.69 1016.99 1017.49
1023.26 1023.49 1023.54 1023.55 1023.77 1024.07 1024.17 1024.17 1024.12 1023.89 1023.90 1023.72 1023.62 1023.59 1023.22 1022.62 1022.14 1021.65 1021.51 1021.50 1021.58 1021.31 1020.79 1020.39 1019.21 1018.72 1017.88 1018.21 1017.55 1016.48 1016.72 1017.03
Wind_Speed
9 12 18 22 19 19 18 19 23 25 27 28 24 21 22 20 20 15 10 13 17 15 10 10 10 9 9 10 8 8 2 4
8 9 10 13 10 21 16 15 21 23 25 28 26 23 21 22 19 18 17 13 19 15 12 13 12 12 11 11 9 7 6 11
8 10 11 11 9 12 17 12 14 19 19 25 18 13 14 16 17 19 20 18 18 16 14 15 12 10 9 11 8 4 7 7
10 10 12 12 11 9 10 10 7 7 9 11 10 15 13 14 16 20 20 21 14 12 12 12 10 3 3 8 3 4 3 8
11 10 11 12 12 9 7 6 5 5 9 10 11 9 10 9 8 7 8 15 6 5 6 6 8 5 4 3 3 4 0 6
10 11 11 11 9 9 9 8 6 7 2 8 7 6 8 10 7 9 8 7 10 5 4 7 8 8 6 4 4 6 3 5
9 9 9 10 13 8 8 8 6 9 4 7 5 6 6 9 8 8 8 7 8 7 6 7 6 6 4 3 4 5 2 6
7 7 7 9 9 11 9 8 6 8 4 5 6 6 5 6 8 9 8 8 8 7 6 7 5 6 5 4 3 1 5 8
5 3 6 7 7 8 8 9 7 8 5 4 7 7 7 6 7 7 8 9 11 7 6 6 2 6 7 5 4 3 3 8
3 3 5 6 5 6 7 8 7 7 5 3 6 7 9 7 5 6 9 8 7 7 5 7 5 7 7 6 6 3 2 7
5 3 3 6 5 5 6 8 6 7 7 4 5 5 7 6 5 6 8 7 7 7 6 7 6 7 7 7 4 3 1 5
4 1 4 4 4 4 5 7 6 6 7 4 4 4 5 7 4 6 7 6 8 7 7 6 7 2 5 6 5 3 2 3
4 4 9 8 7 5 5 6 7 6 7 6 6 5 4 6 5 6 7 7 9 7 5 5 5 4 3 3 2 4 4 7
3 6 8 4 2 4 5 5 8 7 6 6 5 2 4 4 5 5 7 6 8 8 7 3 4 7 4 3 3 1 3 7
8 9 8 2 7 4 3 6 5 6 6 7 5 5 7 4 5 5 7 6 7 8 7 6 3 4 7 5 3 4 4 3
11 10 6 7 8 8 7 6 5 7 7 7 9 15 6 4 5 5 4 4 7 8 7 6 4 5 3 4 1 3 4 3
7 6 11 6 6 1 4 6 6 7 6 10 5 6 8 8 7 5 4 3 6 7 9 8 5 4 4 4 5 3 2 2
6 6 3 4 4 5 5 6 7 7 7 8 7 6 6 8 8 6 4 4 6 6 7 9 7 5 4 6 8 9 6 3
5 7 5 4 4 5 6 6 9 5 6 5 7 7 7 8 8 5 5 5 5 5 6 6 6 5 5 6 8 7 4 5
6 7 6 5 6 6 5 5 4 5 5 5 4 4 6 8 7 5 5 5 5 5 4 5 5 5 7 8 7 7 6 7
Wind_Direction
39 18 7 359 359 22 9 12 16 11 6 6 3 8 4 5 6 5 350 217 189 202 173 244 183 173 209 216 219 237 324 118
43 32 16 354 347 6 6 16 18 20 10 5 4 1 2 355 354 352 335 330 203 188 171 207 213 188 207 235 237 233 234 172
21 36 16 358 358 5 354 11 25 21 17 5 3 356 348 353 348 347 339 323 209 188 200 208 210 182 208 244 271 276 166 121
17 38 21 5 352 9 359 347 28 31 26 16 358 358 344 351 344 349 344 337 226 221 194 189 162 167 212 257 277 288 118 116
22 20 28 13 348 9 352 345 3 342 34 27 12 353 340 349 340 348 339 334 312 192 168 178 182 175 194 235 279 297 60 119
35 12 34 12 348 7 344 337 7 340 90 48 13 351 350 345 346 337 344 336 336 295 190 195 196 170 181 230 295 306 109 135
50 18 40 21 349 3 338 329 357 324 350 43 21 353 3 336 339 333 346 336 337 330 328 223 187 159 148 162 319 357 189 148
64 14 44 38 356 357 331 331 342 324 332 74 28 351 0 345 342 338 340 340 325 319 318 308 180 144 139 138 264 294 303 164
77 345 53 48 4 345 326 327 340 313 325 52 49 353 352 9 342 329 340 336 325 316 325 301 217 149 154 148 239 227 295 159
20 355 23 54 357 325 326 310 324 306 329 333 66 9 348 355 338 336 342 329 324 312 330 312 286 163 154 171 225 244 348 245
302 75 45 44 336 319 332 321 319 325 320 329 39 39 344 351 342 343 328 337 330 326 336 323 302 171 161 169 194 213 102 319
276 284 61 32 311 339 339 326 329 328 311 321 359 68 1 333 2 341 336 336 335 327 330 327 296 109 161 171 185 216 116 286
261 63 53 22 325 344 348 331 323 314 311 323 308 100 27 332 7 341 339 353 329 322 316 342 301 140 141 134 195 186 158 275
318 106 89 5 299 321 355 335 297 301 299 328 304 50 90 357 4 346 339 354 328 341 349 354 299 181 149 92 158 180 223 226
12 65 54 355 358 329 359 318 319 313 339 309 346 302 100 49 3 354 352 353 332 342 347 352 313 264 180 141 155 200 146 199
62 53 46 338 354 7 351 312 316 316 320 358 6 19 59 47 6 10 358 344 331 344 340 313 340 316 243 242 115 118 150 162
86 53 40 300 276 331 317 335 321 325 326 333 345 9 331 29 1 353 352 0 329 342 340 328 315 277 331 230 228 95 23 126
42 72 280 307 12 348 326 332 330 335 355 328 2 346 350 3 345 340 353 351 338 344 327 313 318 321 326 286 220 191 191 162
9 31 354 335 359 353 349 345 324 324 334 351 350 336 352 324 320 332 347 340 356 332 316 313 296 313 336 312 299 189 146 191
27 7 355 6 35 16 350 330 313 347 336 348 322 350 302 305 326 344 342 350 350 327 316 302 321 332 348 304 300 208 185 189